Time,TemperatureF,DewpointF,PressureIn,WindDirection,WindDirectionDegrees,WindSpeedMPH,WindSpeedGustMPH,Humidity,HourlyPrecipIn,Conditions,Clouds,dailyrainin,SolarRadiationWatts/m^2,SoftwareType,DateUTC
2013-06-26 00:02:00,74.0,69.0,-100.00,SE,125,3.0,6.0,84,0.00,,,0.00,0.000000,,2013-06-26 05:02:00,
2013-06-26 00:34:00,72.0,69.0,-100.00,East,97,5.0,6.0,90,0.00,,,0.00,0.000000,,2013-06-26 05:34:00,
2013-06-26 00:43:00,72.0,69.0,-100.00,East,97,5.0,6.0,90,0.00,,,0.00,0.000000,,2013-06-26 05:43:00,
2013-06-26 00:52:00,72.0,69.0,-100.00,East,97,5.0,6.0,90,0.00,,,0.00,0.000000,,2013-06-26 05:52:00,
2013-06-26 01:02:00,72.0,69.0,-100.00,East,97,5.0,6.0,90,0.00,,,0.00,0.000000,,2013-06-26 06:02:00,
2013-06-26 01:34:00,73.0,70.0,-100.00,SE,130,5.0,7.0,89,0.00,,,0.00,0.000000,,2013-06-26 06:34:00,
2013-06-26 01:44:00,73.0,70.0,-100.00,SE,130,5.0,7.0,89,0.00,,,0.00,0.000000,,2013-06-26 06:44:00,
2013-06-26 01:53:00,73.0,70.0,-100.00,SE,130,5.0,7.0,89,0.00,,,0.00,0.000000,,2013-06-26 06:53:00,
2013-06-26 02:01:00,73.0,70.0,-100.00,SE,130,5.0,7.0,89,0.00,,,0.00,0.000000,,2013-06-26 07:01:00,
2013-06-26 02:33:00,72.0,69.0,-100.00,SE,139,5.0,9.0,91,0.00,,,0.00,0.000000,,2013-06-26 07:33:00,
2013-06-26 02:43:00,72.0,69.0,-100.00,SE,139,5.0,9.0,91,0.00,,,0.00,0.000000,,2013-06-26 07:43:00,
2013-06-26 02:53:00,72.0,69.0,-100.00,SE,139,5.0,9.0,91,0.00,,,0.00,0.000000,,2013-06-26 07:53:00,
2013-06-26 03:01:00,72.0,69.0,-100.00,SE,139,5.0,9.0,91,0.00,,,0.00,0.000000,,2013-06-26 08:01:00,
2013-06-26 03:34:00,72.0,70.0,-100.00,ESE,113,2.0,8.0,94,0.00,,,0.00,0.000000,,2013-06-26 08:34:00,
2013-06-26 03:43:00,72.0,70.0,-100.00,ESE,113,2.0,8.0,94,0.00,,,0.00,0.000000,,2013-06-26 08:43:00,
2013-06-26 03:53:00,72.0,70.0,-100.00,ESE,113,2.0,8.0,94,0.00,,,0.00,0.000000,,2013-06-26 08:53:00,
2013-06-26 04:01:00,72.0,70.0,-100.00,ESE,113,2.0,8.0,94,0.00,,,0.00,0.000000,,2013-06-26 09:01:00,
2013-06-26 04:33:00,70.0,69.0,-100.00,ESE,104,3.0,5.0,98,0.00,,,0.00,0.000000,,2013-06-26 09:33:00,
2013-06-26 04:43:00,70.0,69.0,-100.00,ESE,104,3.0,5.0,98,0.00,,,0.00,0.000000,,2013-06-26 09:43:00,
2013-06-26 04:53:00,70.0,69.0,-100.00,ESE,104,3.0,5.0,98,0.00,,,0.00,0.000000,,2013-06-26 09:53:00,
2013-06-26 05:01:00,70.0,69.0,-100.00,ESE,104,3.0,5.0,98,0.00,,,0.00,0.000000,,2013-06-26 10:01:00,
2013-06-26 05:34:00,69.0,68.0,-100.00,NE,56,1.0,4.0,98,0.00,,,0.00,0.000000,,2013-06-26 10:34:00,
2013-06-26 05:43:00,69.0,68.0,-100.00,NE,56,1.0,4.0,98,0.00,,,0.00,0.000000,,2013-06-26 10:43:00,
2013-06-26 05:53:00,69.0,68.0,-100.00,NE,56,1.0,4.0,98,0.00,,,0.00,0.000000,,2013-06-26 10:53:00,
2013-06-26 06:02:00,69.0,68.0,-100.00,NE,56,1.0,4.0,98,0.00,,,0.00,0.000000,,2013-06-26 11:02:00,
2013-06-26 06:33:00,71.0,71.0,-100.00,East,86,3.0,6.0,99,0.00,,,0.00,4.000000,,2013-06-26 11:33:00,
2013-06-26 06:44:00,71.0,71.0,-100.00,East,86,3.0,6.0,99,0.00,,,0.00,4.000000,,2013-06-26 11:44:00,
2013-06-26 06:52:00,71.0,71.0,-100.00,East,86,3.0,6.0,99,0.00,,,0.00,4.000000,,2013-06-26 11:52:00,
2013-06-26 07:02:00,71.0,71.0,-100.00,East,86,3.0,6.0,99,0.00,,,0.00,4.000000,,2013-06-26 12:02:00,
2013-06-26 07:34:00,72.0,71.0,-100.00,ESE,111,3.0,6.0,98,0.00,,,0.00,38.000000,,2013-06-26 12:34:00,
2013-06-26 07:43:00,72.0,71.0,-100.00,ESE,111,3.0,6.0,98,0.00,,,0.00,38.000000,,2013-06-26 12:43:00,
2013-06-26 07:52:00,72.0,71.0,-100.00,ESE,111,3.0,6.0,98,0.00,,,0.00,38.000000,,2013-06-26 12:52:00,
2013-06-26 08:02:00,72.0,71.0,-100.00,ESE,111,3.0,6.0,98,0.00,,,0.00,38.000000,,2013-06-26 13:02:00,
2013-06-26 08:34:00,74.0,72.0,-100.00,South,190,6.0,9.0,93,0.00,,,0.00,121.000000,,2013-06-26 13:34:00,
2013-06-26 08:43:00,74.0,72.0,-100.00,South,190,6.0,9.0,93,0.00,,,0.00,121.000000,,2013-06-26 13:43:00,
2013-06-26 08:53:00,74.0,72.0,-100.00,South,190,6.0,9.0,93,0.00,,,0.00,121.000000,,2013-06-26 13:53:00,
2013-06-26 09:02:00,74.0,72.0,-100.00,South,190,6.0,9.0,93,0.00,,,0.00,121.000000,,2013-06-26 14:02:00,
2013-06-26 09:34:00,77.0,72.0,-100.00,SW,216,6.0,11.0,86,0.00,,,0.00,230.000000,,2013-06-26 14:34:00,
2013-06-26 09:42:00,77.0,72.0,-100.00,SW,216,6.0,11.0,86,0.00,,,0.00,230.000000,,2013-06-26 14:42:00,
2013-06-26 09:53:00,77.0,72.0,-100.00,SW,216,6.0,11.0,86,0.00,,,0.00,230.000000,,2013-06-26 14:53:00,
2013-06-26 10:02:00,77.0,72.0,-100.00,SW,216,6.0,11.0,86,0.00,,,0.00,230.000000,,2013-06-26 15:02:00,
2013-06-26 10:34:00,81.0,73.0,-100.00,SW,223,6.0,10.0,78,0.00,,,0.00,469.000000,,2013-06-26 15:34:00,
2013-06-26 10:44:00,81.0,73.0,-100.00,SW,223,6.0,10.0,78,0.00,,,0.00,469.000000,,2013-06-26 15:44:00,
2013-06-26 10:53:00,81.0,73.0,-100.00,SW,223,6.0,10.0,78,0.00,,,0.00,469.000000,,2013-06-26 15:53:00,
2013-06-26 11:01:00,81.0,73.0,-100.00,SW,223,6.0,10.0,78,0.00,,,0.00,469.000000,,2013-06-26 16:01:00,
2013-06-26 11:34:00,81.0,71.0,-100.00,WSW,258,8.0,12.0,72,0.00,,,0.00,475.000000,,2013-06-26 16:34:00,
2013-06-26 11:43:00,81.0,71.0,-100.00,WSW,258,8.0,12.0,72,0.00,,,0.00,475.000000,,2013-06-26 16:43:00,
2013-06-26 11:52:00,81.0,71.0,-100.00,WSW,258,8.0,12.0,72,0.00,,,0.00,475.000000,,2013-06-26 16:52:00,
2013-06-26 12:02:00,81.0,71.0,-100.00,WSW,258,8.0,12.0,72,0.00,,,0.00,475.000000,,2013-06-26 17:02:00,
2013-06-26 12:33:00,85.0,67.0,-100.00,West,271,10.0,15.0,55,0.00,,,0.00,873.000000,,2013-06-26 17:33:00,
2013-06-26 12:43:00,85.0,67.0,-100.00,West,271,10.0,15.0,55,0.00,,,0.00,873.000000,,2013-06-26 17:43:00,
2013-06-26 12:52:00,85.0,67.0,-100.00,West,271,10.0,15.0,55,0.00,,,0.00,873.000000,,2013-06-26 17:52:00,
2013-06-26 13:01:00,85.0,67.0,-100.00,West,271,10.0,15.0,55,0.00,,,0.00,873.000000,,2013-06-26 18:01:00,
2013-06-26 13:34:00,85.0,66.0,-100.00,WSW,254,10.0,17.0,54,0.00,,,0.00,976.000000,,2013-06-26 18:34:00,
2013-06-26 13:43:00,85.0,66.0,-100.00,WSW,254,10.0,17.0,54,0.00,,,0.00,976.000000,,2013-06-26 18:43:00,
2013-06-26 13:52:00,85.0,66.0,-100.00,WSW,254,10.0,17.0,54,0.00,,,0.00,976.000000,,2013-06-26 18:52:00,
2013-06-26 14:02:00,85.0,66.0,-100.00,WSW,254,10.0,17.0,54,0.00,,,0.00,976.000000,,2013-06-26 19:02:00,
2013-06-26 14:33:00,87.0,67.0,-100.00,WSW,254,10.0,15.0,52,0.00,,,0.00,977.000000,,2013-06-26 19:33:00,
2013-06-26 14:43:00,87.0,67.0,-100.00,WSW,254,10.0,15.0,52,0.00,,,0.00,977.000000,,2013-06-26 19:43:00,
2013-06-26 14:52:00,87.0,67.0,-100.00,WSW,254,10.0,15.0,52,0.00,,,0.00,977.000000,,2013-06-26 19:52:00,
2013-06-26 15:01:00,87.0,67.0,-100.00,WSW,254,10.0,15.0,52,0.00,,,0.00,977.000000,,2013-06-26 20:01:00,
2013-06-26 15:34:00,85.0,68.0,-100.00,WNW,283,9.0,16.0,57,0.00,,,0.00,600.000000,,2013-06-26 20:34:00,
2013-06-26 15:43:00,85.0,68.0,-100.00,WNW,283,9.0,16.0,57,0.00,,,0.00,600.000000,,2013-06-26 20:43:00,
2013-06-26 15:52:00,85.0,68.0,-100.00,WNW,283,9.0,16.0,57,0.00,,,0.00,600.000000,,2013-06-26 20:52:00,
2013-06-26 16:02:00,85.0,68.0,-100.00,WNW,283,9.0,16.0,57,0.00,,,0.00,600.000000,,2013-06-26 21:02:00,
2013-06-26 16:33:00,84.0,68.0,-100.00,NW,315,13.0,20.0,59,0.00,,,0.00,741.000000,,2013-06-26 21:33:00,
2013-06-26 16:43:00,84.0,68.0,-100.00,NW,315,13.0,20.0,59,0.00,,,0.00,741.000000,,2013-06-26 21:43:00,
2013-06-26 16:52:00,84.0,68.0,-100.00,NW,315,13.0,20.0,59,0.00,,,0.00,741.000000,,2013-06-26 21:52:00,
2013-06-26 17:01:00,84.0,68.0,-100.00,NW,315,13.0,20.0,59,0.00,,,0.00,741.000000,,2013-06-26 22:01:00,
2013-06-26 17:34:00,84.0,65.0,-100.00,NW,313,12.0,20.0,53,0.00,,,0.00,700.000000,,2013-06-26 22:34:00,
2013-06-26 17:43:00,84.0,65.0,-100.00,NW,313,12.0,20.0,53,0.00,,,0.00,700.000000,,2013-06-26 22:43:00,
2013-06-26 17:52:00,84.0,65.0,-100.00,NW,313,12.0,20.0,53,0.00,,,0.00,700.000000,,2013-06-26 22:52:00,
2013-06-26 18:02:00,84.0,65.0,-100.00,NW,313,12.0,20.0,53,0.00,,,0.00,700.000000,,2013-06-26 23:02:00,
2013-06-26 18:34:00,84.0,67.0,-100.00,NNW,332,10.0,19.0,56,0.00,,,0.00,557.000000,,2013-06-26 23:34:00,
2013-06-26 18:43:00,84.0,67.0,-100.00,NNW,332,10.0,19.0,56,0.00,,,0.00,557.000000,,2013-06-26 23:43:00,
2013-06-26 18:53:00,84.0,67.0,-100.00,NNW,332,10.0,19.0,56,0.00,,,0.00,557.000000,,2013-06-26 23:53:00,
2013-06-26 19:01:00,84.0,67.0,-100.00,NNW,332,10.0,19.0,56,0.00,,,0.00,557.000000,,2013-06-27 00:01:00,
2013-06-26 19:34:00,83.0,66.0,-100.00,NW,322,8.0,13.0,56,0.00,,,0.00,368.000000,,2013-06-27 00:34:00,
2013-06-26 19:43:00,83.0,66.0,-100.00,NW,322,8.0,13.0,56,0.00,,,0.00,368.000000,,2013-06-27 00:43:00,
2013-06-26 19:53:00,83.0,66.0,-100.00,NW,322,8.0,13.0,56,0.00,,,0.00,368.000000,,2013-06-27 00:53:00,
2013-06-26 20:01:00,83.0,66.0,-100.00,NW,322,8.0,13.0,56,0.00,,,0.00,368.000000,,2013-06-27 01:01:00,
2013-06-26 20:32:00,81.0,65.0,-100.00,WNW,300,8.0,13.0,58,0.00,,,0.00,180.000000,,2013-06-27 01:32:00,
2013-06-26 20:43:00,81.0,65.0,-100.00,WNW,300,8.0,13.0,58,0.00,,,0.00,180.000000,,2013-06-27 01:43:00,
2013-06-26 20:53:00,81.0,65.0,-100.00,WNW,300,8.0,13.0,58,0.00,,,0.00,180.000000,,2013-06-27 01:53:00,
2013-06-26 21:01:00,81.0,65.0,-100.00,WNW,300,8.0,13.0,58,0.00,,,0.00,180.000000,,2013-06-27 02:01:00,
2013-06-26 21:32:00,76.0,63.0,-100.00,WNW,291,5.0,10.0,65,0.00,,,0.00,16.000000,,2013-06-27 02:32:00,
2013-06-26 21:42:00,76.0,63.0,-100.00,WNW,291,5.0,10.0,65,0.00,,,0.00,16.000000,,2013-06-27 02:42:00,
2013-06-26 21:52:00,76.0,63.0,-100.00,WNW,291,5.0,10.0,65,0.00,,,0.00,16.000000,,2013-06-27 02:52:00,
2013-06-26 22:02:00,76.0,63.0,-100.00,WNW,291,5.0,10.0,65,0.00,,,0.00,16.000000,,2013-06-27 03:02:00,
2013-06-26 22:33:00,73.0,63.0,-100.00,WNW,297,6.0,8.0,72,0.00,,,0.00,1.000000,,2013-06-27 03:33:00,
2013-06-26 22:42:00,73.0,63.0,-100.00,WNW,297,6.0,8.0,72,0.00,,,0.00,1.000000,,2013-06-27 03:42:00,
2013-06-26 22:52:00,73.0,63.0,-100.00,WNW,297,6.0,8.0,72,0.00,,,0.00,1.000000,,2013-06-27 03:52:00,
2013-06-26 23:01:00,73.0,63.0,-100.00,WNW,297,6.0,8.0,72,0.00,,,0.00,1.000000,,2013-06-27 04:01:00,
2013-06-26 23:33:00,71.0,65.0,-100.00,SSE,152,2.0,7.0,81,0.00,,,0.00,0.000000,,2013-06-27 04:33:00,
2013-06-26 23:42:00,71.0,65.0,-100.00,SSE,152,2.0,7.0,81,0.00,,,0.00,0.000000,,2013-06-27 04:42:00,
2013-06-26 23:53:00,71.0,65.0,-100.00,SSE,152,2.0,7.0,81,0.00,,,0.00,0.000000,,2013-06-27 04:53:00,